Notices

What's New in latest Release from April 7th, 2021:

- Updated Glossary, including Speed of Maximum Gust, and Total Hourly Precipitation

- Updated national and regional climate services offices contacts and prices information

- Addition of station inventory lists for 1981-2010, 1971-2000, and 1961-1990 Normals.

If you haven't already, please take our survey and provide feedback about our website: https://eccc.sondage-survey.ca/f/LanguageSelection.aspx?s=442ca660-fcf1-47c0-95a9-59707d6fd709

Hourly Data Report for April 22, 2021

KUGAARUK CLIMATE
NUNAVUT
Current Station Operator: ECCC - MSC

68°32'15.060" N
89°47'47.020" W
15.80 m
2303094
71407
NBB

Download Data

Hourly Data (April 2021)
Hourly Data Report for April 22, 2021
TIME
LST
Temp Definition
°C
Dew Point Definition
°C
Rel Hum Definition
%
Precip. Amount Definition
mm

Wind Dir Definition
10's deg

Wind Spd Definition
km/h
Visibility Definition
km
Stn Press Definition
kPa
Hmdx Definition


Wind Chill Definition


Weather Definition


00:00 -11.9 -14.5 80 0.0 27 23   99.84   -21 LegendNANA
01:00 -13.0 -15.5 81 0.0 25 19   99.86   -21 LegendNANA
02:00 -14.2 -16.8 81 0.0 24 31   99.88   -25 LegendNANA
03:00 -15.1 -17.8 80 0.0 24 23   99.95   -25 LegendNANA
04:00 -14.9 -17.7 79 0.0 25 19   100.02   -24 LegendNANA
05:00 -14.9 -17.8 78 0.0 24 28   100.03   -26 LegendNANA
06:00 -15.0 -18.1 77 0.0 23 29   100.09   -26 LegendNANA
07:00 -14.7 -18.3 74 0.0 23 19   100.18   -24 LegendNANA
08:00 -14.4 -18.0 74 0.0 23 20   100.23   -23 LegendNANA
09:00 -14.1 -18.2 71 0.0 23 15   100.27   -22 LegendNANA
10:00 -13.7 -18.1 69 0.0 24 20   100.29   -23 LegendNANA
11:00 -13.5 -18.3 67 0.0 25 17   100.33   -22 LegendNANA
12:00 -13.3 -18.3 66 0.0 25 17   100.37   -21 LegendNANA
13:00 -13.0 -18.7 62 0.0 25 15   100.41   -20 LegendNANA
14:00 -12.7 -17.4 68 0.0 25 19   100.46   -21 LegendNANA
15:00 -12.7 -17.3 69 0.0 22 13   100.50   -20 LegendNANA
16:00 -12.7 -17.3 68 0.0 23 6   100.53   -17 LegendNANA
17:00 -13.6 -16.8 76 0.0 25 6   100.58   -18 LegendNANA
18:00 -14.2 -17.6 75 0.0 24 11   100.63   -21 LegendNANA
19:00 -15.0 -17.8 79 0.0 24 10   100.67   -21 LegendNANA
20:00 -15.7 -18.8 77 0.0 23 8   100.71   -21 LegendNANA
21:00 -18.1 -20.6 80 0.0 26 8   100.70   -24 LegendNANA
22:00 -19.7 -22.1 81 0.0 26 10   100.70   -27 LegendNANA
23:00 -21.1 -23.1 84 0.0 4 4   100.72   -25 LegendNANA

Notes on Data Quality.

Legend

  • E = Estimated
  • M = Missing
  • NA = Not Available*
  • [empty] = Indicates an unobserved value
Date modified: